YAOGAN-30 AB (48861 NORAD) Tracking and Keplerian Element Data

This shows tracking and keplerian element data for the satellite.

Feedback or suggestion? Click here.




ElementValue
Catalog48861
NameYAOGAN-30 AB
Epoch Orbit619
Epoch Day211.07447346
Epoch Year2021
RAAN90.2408
Inclination34.996
Eccentricity0.0005133
Argument of Perigee148.9687
Mean Anonmoly211.1321
Mean Motion14.89955986
Decay Rate3.06E-06
L11 48861U 21055B 21211.07447346 .00000306 00000-0 33890-4 0 9998
L22 48861 34.9960 90.2408 0005133 148.9687 211.1321 14.89955986 6199

Live tracking and technical data element details for YAOGAN-30 AB (NORAD 48861). YAOGAN-30 AB can be tracked NOW for your location showing map with azimuth and elevation plus other details from your city location.

Track the satellite on the map from your city or location and see movement details for azimuth, elevation, latitude, longitude, range, height, and movement on the map or in text.







IsCatalogInMostPopularTable: catalog: 48861, numindb: 6
Update: records affected: 1



GetName: 48861 YAOGAN-30 AB

Hit Count: updated at: Sat, 31 Jul 2021 15:40:12 GMT